Dewpoint
66 67 68 70 68 68 68 68 68 68 68 68 68 68 68 68 68 68 68 68 68 68 68 68 68 68 68 68 68 68 68 67 67 67 67 67 67 67 67 67 67 67 67 68 68 68 68 67 68 68 68 68 69 68 68 68 68 68 68 68 68 68 68 68 68 68 67 67 67 68 67 67 67 67 67 65 66 66 66 68 68 66 66 68 67
66 67 68 69 68 68 68 68 68 68 68 68 68 68 68 68 68 68 68 68 68 68 68 68 68 68 68 67 68 68 68 67 67 67 67 67 67 67 67 66 67 67 67 68 67 67 67 67 67 67 67 68 68 68 68 68 68 68 68 68 68 68 68 68 68 68 68 68 68 68 68 68 68 68 67 67 68 68 67 67 68 67 65 67 66
67 68 68 69 68 68 68 68 68 68 68 68 68 68 68 68 68 68 68 68 68 68 68 68 68 68 68 68 68 67 67 67 67 67 66 67 67 67 66 66 66 66 67 67 67 67 66 66 66 67 67 67 67 68 67 68 68 68 68 68 68 68 68 68 68 68 68 68 68 68 68 68 68 68 68 68 68 68 68 67 67 68 64 66 66
67 67 68 69 69 68 68 68 68 68 68 68 68 69 69 68 68 68 68 68 68 68 68 67 68 67 67 67 68 67 67 67 67 67 66 67 67 66 66 66 66 66 67 67 67 67 66 66 66 66 66 66 67 67 67 67 68 68 68 68 68 68 68 68 68 69 69 68 68 68 69 68 68 68 68 68 68 68 68 68 68 68 68 66 67
67 68 68 68 68 70 68 68 68 68 68 69 69 69 69 69 69 69 69 69 68 68 68 68 67 67 67 67 67 67 67 67 67 67 66 66 67 67 67 66 66 66 67 67 67 66 66 66 66 67 66 66 67 67 67 67 67 67 68 68 68 68 68 68 68 69 69 69 69 68 67 67 67 68 68 69 68 68 69 68 68 68 68 67 68
67 67 68 66 67 68 69 69 69 68 69 69 69 69 69 70 70 69 69 68 68 68 68 67 67 67 67 67 67 67 67 67 66 66 66 66 67 67 67 66 66 66 67 66 66 66 66 66 66 66 66 66 66 67 67 67 67 67 67 68 68 68 68 68 68 69 69 69 69 68 67 67 66 67 68 69 68 68 69 69 68 68 68 67 68
67 67 67 66 67 69 69 69 69 69 69 69 69 69 70 70 70 70 69 68 68 68 68 67 67 67 67 67 67 67 67 67 67 67 66 66 66 66 66 66 66 66 66 66 66 66 66 66 66 66 66 66 66 66 67 67 67 68 68 68 68 68 68 68 68 68 68 68 67 67 67 67 66 66 68 68 68 68 68 70 70 69 68 67 68
68 68 65 66 67 69 69 70 70 69 69 70 70 70 70 70 70 69 69 68 68 68 68 68 67 67 67 67 67 67 67 68 67 66 66 66 65 65 65 65 65 65 65 65 65 65 66 66 66 66 66 66 66 67 67 68 68 67 68 68 68 68 68 68 68 68 68 66 66 66 66 66 66 66 68 68 68 67 68 70 70 70 69 69 68
67 67 66 67 67 69 69 70 70 70 69 70 71 70 70 70 70 69 69 68 68 68 68 67 67 67 67 67 67 67 67 67 66 66 66 65 66 65 65 64 63 63 63 63 64 64 64 64 65 65 65 65 66 66 66 67 67 67 67 66 67 68 68 68 68 68 67 66 66 66 66 66 66 65 67 68 68 68 67 70 71 69 69 69 68
65 66 65 66 66 71 69 69 70 70 70 71 71 71 70 70 70 69 69 68 68 68 67 67 67 67 67 67 67 67 67 67 66 66 66 65 65 65 63 63 63 63 62 63 63 64 63 62 62 62 63 64 64 64 64 64 65 65 66 67 67 66 67 68 68 68 66 66 66 66 66 68 65 64 65 67 68 68 68 68 70 69 69 69 69
65 65 64 66 67 68 69 69 70 70 71 70 70 70 70 70 69 68 68 68 68 67 67 67 66 66 66 66 66 66 66 66 66 66 66 65 64 65 62 62 62 61 61 61 61 61 61 61 60 59 60 63 64 64 63 63 63 64 65 65 66 67 67 67 67 66 67 66 66 66 67 68 66 65 67 68 68 67 67 67 68 69 69 69 70
66 66 67 66 66 69 68 69 70 70 71 70 70 70 69 68 68 68 68 68 67 67 67 67 66 63 60 62 63 63 64 65 65 65 66 65 64 63 64 61 61 60 60 60 60 58 58 57 57 58 58 59 60 60 60 60 60 61 64 65 65 65 66 67 65 67 66 66 66 66 66 65 65 65 67 67 67 67 66 65 67 68 70 68 69
66 67 67 66 67 67 68 69 70 70 70 70 69 69 68 68 68 68 68 67 67 66 64 64 64 61 59 59 60 60 62 63 63 61 63 65 65 62 63 62 60 59 58 58 58 57 56 56 57 58 57 56 56 56 57 57 58 60 61 63 64 65 65 65 64 66 67 66 66 66 66 65 65 67 67 67 67 67 66 66 68 69 69 70 69
66 66 66 68 69 67 69 70 70 70 69 69 69 68 68 68 68 67 67 66 64 62 61 61 62 60 57 57 59 61 60 60 59 56 60 62 60 61 60 59 59 58 57 57 57 56 56 56 57 57 55 55 56 56 56 57 58 59 60 61 63 64 64 64 64 65 67 67 67 67 66 66 65 67 68 68 67 67 67 66 67 69 69 70 69
66 66 67 66 66 69 68 69 69 69 69 69 68 68 68 67 67 67 66 63 61 60 60 61 61 59 55 56 60 59 59 58 59 57 61 60 58 58 58 60 61 57 57 57 56 56 56 56 58 56 55 55 56 55 55 55 55 56 57 59 60 62 64 61 62 64 65 67 67 67 66 65 67 68 68 67 66 65 66 67 67 68 69 69 68
66 66 65 64 65 66 68 68 68 69 69 68 68 67 67 67 66 66 65 63 61 61 60 60 58 57 53 55 58 58 59 61 62 59 59 58 56 57 58 58 59 57 58 56 55 56 56 56 57 56 55 56 55 54 54 54 53 55 55 55 59 62 63 63 62 63 65 66 66 67 66 65 67 67 66 66 65 65 65 66 67 67 68 68 68
65 67 66 65 66 66 66 69 68 67 69 69 68 68 67 67 66 65 65 63 60 61 59 59 57 54 53 56 57 58 59 61 61 58 58 58 60 58 57 59 56 58 57 55 57 57 55 55 57 56 55 54 54 54 53 52 54 55 54 51 52 53 57 58 61 63 64 65 65 65 65 64 64 66 65 65 65 65 65 65 67 68 68 68 68
65 66 65 65 65 66 67 67 68 66 67 69 70 69 68 67 65 62 61 60 60 59 59 57 56 54 54 57 58 60 59 61 60 58 58 59 61 59 56 58 56 57 57 55 56 56 56 55 55 56 54 53 53 53 52 55 56 55 54 50 51 52 54 57 59 64 64 66 65 65 65 66 66 66 66 66 65 65 65 65 67 69 69 69 69
65 65 64 62 61 62 63 63 64 64 66 66 66 67 68 65 58 60 61 59 59 58 57 54 54 55 54 56 59 60 58 60 60 60 58 59 60 61 57 58 56 57 57 56 55 55 53 53 53 53 53 52 52 52 53 54 56 56 56 50 50 51 54 58 61 65 65 65 64 64 63 66 66 66 65 66 66 66 66 65 66 69 70 69 69
61 60 59 59 58 58 60 59 58 60 59 61 65 65 67 58 59 60 60 59 58 60 58 56 56 55 57 58 59 59 56 55 60 59 58 59 60 59 58 56 56 56 55 54 54 53 52 51 51 52 52 52 52 53 54 54 55 55 55 53 51 55 46 48 53 61 64 64 66 64 65 66 65 64 64 64 65 65 65 66 66 67 69 69 69
59 58 58 57 57 57 57 56 55 56 58 59 61 60 63 59 58 60 59 59 59 61 58 58 56 57 58 59 58 56 51 52 55 55 57 56 59 59 58 56 54 53 56 53 53 52 51 50 51 51 52 53 54 53 52 54 54 54 55 56 55 43 42 40 42 53 62 64 65 63 65 63 62 65 63 61 64 65 64 65 68 68 68 69 69
54 53 54 57 56 57 56 55 53 54 57 58 60 60 59 57 54 53 57 55 59 60 59 57 56 51 57 54 54 55 50 52 55 58 54 55 54 58 57 56 56 56 55 54 54 54 52 53 54 55 56 55 54 43 46 51 53 54 55 55 44 41 40 40 42 46 56 58 62 60 61 58 55 53 54 55 64 66 65 66 67 67 67 67 67
51 49 50 52 56 56 55 53 53 53 55 55 59 58 53 51 53 55 54 56 56 57 53 57 52 50 52 52 57 53 51 52 53 54 55 57 53 57 57 56 55 55 55 55 55 55 56 55 55 55 55 53 45 43 43 43 43 53 53 44 43 42 42 42 43 47 48 48 55 61 55 57 51 52 52 53 55 61 66 67 68 68 68 68 67
52 50 50 53 53 54 54 53 53 52 54 54 58 55 53 51 51 55 51 50 50 52 53 54 53 51 50 52 53 53 51 50 56 55 55 50 51 55 56 55 54 54 56 51 53 53 54 53 53 54 52 48 45 44 44 44 46 45 44 44 44 44 44 44 45 45 47 52 54 57 58 50 49 50 51 53 55 59 66 67 67 66 67 68 67
52 49 49 51 52 52 54 53 52 52 53 53 54 53 50 53 51 55 51 51 50 50 52 52 53 51 51 52 53 52 51 49 50 50 49 49 49 49 49 49 47 47 54 47 47 48 48 46 46 49 46 46 46 45 45 47 47 47 46 45 45 45 45 46 45 46 46 46 47 56 57 58 57 56 57 53 53 54 67 65 66 67 66 66 66
52 47 48 49 51 50 50 52 52 51 52 52 52 53 49 50 53 55 51 51 50 50 52 52 53 51 52 53 52 51 50 49 50 49 48 49 48 48 48 48 47 47 50 47 48 48 47 46 47 47 46 46 46 47 47 50 47 47 46 46 46 47 46 46 46 46 45 45 48 56 57 55 55 56 57 59 52 54 59 65 65 66 66 66 66
47 47 48 49 53 49 48 50 51 52 52 52 52 51 49 50 53 55 50 52 50 51 52 52 52 51 51 54 51 50 50 48 49 49 47 48 48 48 48 48 47 47 48 48 48 48 48 47 47 47 47 47 47 47 47 48 47 47 47 48 48 47 47 47 47 47 47 47 52 56 57 57 57 57 57 56 57 53 54 56 61 66 66 66 66
47 47 47 48 51 50 49 50 51 53 52 52 52 51 50 51 52 53 49 56 51 51 51 52 52 51 52 52 54 51 50 48 49 48 47 47 48 48 49 48 47 46 48 48 48 48 48 47 48 47 47 47 47 47 48 48 47 47 48 48 48 48 48 47 47 47 48 47 49 53 56 57 58 58 58 57 57 57 50 50 52 57 63 65 65
47 48 48 48 49 55 51 50 52 52 51 52 52 52 50 51 51 48 50 56 50 51 51 52 51 52 50 50 53 52 50 49 48 48 47 47 47 48 49 48 47 47 48 48 48 48 47 47 48 48 48 48 47 47 49 47 47 47 48 49 48 48 48 48 48 48 48 48 48 51 56 57 57 58 58 57 58 60 52 50 53 55 56 57 60
49 49 48 48 49 50 51 52 52 55 52 51 53 51 51 51 52 48 50 53 51 52 51 51 52 50 49 49 50 52 51 49 49 48 47 48 48 48 49 49 47 47 48 47 48 48 48 48 48 48 48 48 48 47 48 47 47 47 49 48 48 48 48 48 48 48 48 48 49 50 55 56 57 58 58 57 58 60 57 56 56 59 61 62 59
50 50 49 49 53 49 50 52 52 56 54 52 53 51 53 50 55 49 48 49 52 52 51 50 51 51 50 50 50 51 50 49 50 48 48 48 48 48 48 49 47 47 48 47 48 49 48 48 48 48 48 48 48 47 48 47 47 47 49 47 47 47 48 48 48 48 48 49 49 50 52 56 56 57 57 57 59 59 59 59 61 62 63 63 64
48 49 50 52 51 50 51 52 52 53 55 52 55 52 51 52 55 51 50 50 53 51 50 50 52 51 51 50 50 51 53 48 50 48 50 48 47 47 48 49 48 48 49 48 48 48 48 48 48 48 48 48 48 47 48 47 46 47 48 46 46 47 47 48 48 48 48 49 50 50 50 53 55 56 57 57 59 59 59 59 59 59 61 62 63
48 50 51 52 52 51 54 52 53 52 53 52 54 52 52 53 53 52 53 51 50 50 49 49 49 51 51 50 49 51 52 49 50 49 53 48 48 46 47 49 48 48 48 48 48 48 48 48 47 48 47 48 47 47 48 47 46 46 46 46 46 47 47 48 48 48 49 50 50 50 50 51 51 55 56 57 59 58 59 61 61 62 63 63 62
50 49 50 50 54 54 53 53 55 51 54 53 55 52 53 53 55 52 53 51 50 51 52 50 51 51 51 50 49 51 51 49 49 48 48 48 48 46 47 48 48 49 48 48 48 48 48 48 48 47 49 48 46 46 47 46 46 46 46 46 46 47 47 47 47 48 49 50 50 50 50 50 50 51 53 59 59 59 59 59 60 61 62 62 62
50 49 51 49 51 53 54 52 55 50 51 52 53 52 53 52 53 52 51 51 51 50 51 50 49 50 50 49 49 51 51 49 50 49 47 48 48 47 47 48 48 49 48 48 48 48 48 47 48 46 46 46 46 46 46 46 46 45 46 47 46 47 48 47 47 49 50 49 50 51 51 51 51 53 56 56 59 59 60 60 60 61 62 63 63
49 49 50 50 50 52 53 51 51 50 50 53 53 52 52 53 53 57 51 52 50 50 51 51 49 48 50 49 49 52 50 49 49 50 47 47 47 47 47 49 49 48 48 48 49 48 48 48 47 47 46 46 46 45 45 45 46 46 46 46 46 49 47 47 49 50 49 50 52 53 53 53 54 55 58 55 55 57 60 60 61 61 62 62 63
50 49 50 49 49 51 52 51 51 50 50 51 53 52 52 53 53 54 52 52 51 50 51 51 50 48 49 49 49 51 50 49 48 48 48 48 47 47 48 49 49 48 48 48 47 48 47 47 47 48 47 46 45 45 45 45 46 46 46 46 47 48 47 49 49 49 50 51 52 53 53 54 55 57 55 55 56 56 59 61 62 62 62 62 63
52 50 50 50 49 51 52 54 51 51 51 51 53 53 52 53 53 53 57 51 52 51 50 51 49 49 49 50 49 49 52 49 48 46 48 50 49 48 48 49 48 48 48 48 47 47 48 48 47 47 47 46 45 45 44 45 46 46 46 46 47 47 47 51 49 51 50 50 50 51 52 53 54 54 54 55 56 57 57 60 62 62 62 62 62
51 50 49 49 49 51 51 50 52 52 51 51 53 53 52 53 52 53 52 52 51 52 50 49 49 48 49 51 51 50 50 49 48 47 48 50 48 48 48 48 48 48 47 48 47 48 48 48 47 46 47 46 46 45 45 46 46 46 46 46 47 47 49 51 48 48 50 49 49 50 51 51 52 53 53 55 56 57 58 58 57 57 59 63 63
50 52 51 49 49 50 50 49 50 52 52 51 52 52 51 52 51 52 51 52 51 53 51 50 48 48 50 50 50 48 47 49 49 47 48 50 48 48 47 47 47 47 47 47 47 47 48 48 47 47 46 47 47 46 45 46 46 46 47 46 47 47 48 48 47 48 49 48 48 49 49 50 51 51 53 55 57 59 60 60 60 59 60 61 62
49 49 49 49 49 50 50 49 50 51 52 51 51 51 50 51 51 52 51 51 52 51 51 50 49 49 49 50 50 48 46 47 49 48 47 49 48 47 47 46 46 48 48 48 48 48 48 48 48 48 47 46 46 47 46 46 45 44 45 46 46 46 49 47 47 48 48 47 47 48 50 50 52 52 54 57 57 58 59 60 60 61 61 61 60
49 48 48 49 49 50 50 49 49 50 51 52 51 52 51 51 50 51 50 50 50 49 50 51 50 49 49 50 50 47 46 47 49 48 48 47 46 46 46 46 46 47 49 49 49 50 48 48 48 48 48 47 47 47 47 46 45 45 44 44 44 45 48 46 46 47 49 47 47 48 50 50 53 55 56 55 56 57 58 59 59 60 60 60 59
49 48 48 48 49 50 50 50 49 50 51 53 52 51 52 51 52 51 51 49 50 51 50 51 50 47 48 49 49 47 47 46 46 48 48 47 46 46 46 47 46 49 47 48 47 48 48 48 48 48 48 48 48 48 47 47 45 46 46 45 42 43 44 45 46 47 49 46 47 48 50 51 53 56 56 55 55 55 56 57 57 58 58 57 58
49 47 47 48 49 52 50 49 49 50 51 53 55 53 53 51 51 51 51 50 50 53 49 49 48 48 47 48 47 47 47 46 46 46 48 47 46 46 46 47 47 48 48 47 47 47 48 48 48 49 49 47 47 47 48 48 47 48 43 43 43 43 42 44 45 47 48 46 47 48 50 51 53 55 56 56 56 56 56 56 56 56 56 56 57
48 48 48 48 49 50 50 49 49 50 51 53 52 53 52 49 49 49 49 48 48 48 48 47 46 49 48 47 46 47 47 47 46 46 47 47 47 47 47 47 47 47 49 47 47 48 48 48 48 49 49 49 48 48 48 49 47 48 47 45 42 42 42 44 46 47 46 45 47 49 51 52 53 54 54 54 54 55 55 55 55 56 57 57 57
48 48 49 49 49 50 51 50 50 50 51 51 52 53 51 49 48 47 46 45 45 46 47 46 45 45 45 47 46 46 46 47 46 46 46 48 47 47 47 47 47 47 50 48 48 48 48 48 48 49 49 50 50 49 48 49 49 48 48 49 48 44 44 45 46 43 46 45 47 50 50 51 51 51 51 51 51 51 53 52 54 54 55 55 56
49 49 49 49 49 50 51 51 51 50 51 51 50 53 50 49 47 47 47 46 45 45 47 48 48 46 46 45 46 46 46 46 46 46 45 46 48 47 47 48 48 48 50 48 48 48 48 48 49 49 50 52 51 50 49 49 48 48 48 48 48 49 49 47 45 47 41 43 48 49 49 49 49 49 49 49 49 49 49 50 50 52 53 55 55
50 49 49 49 49 49 50 50 51 51 49 51 49 51 50 48 47 46 49 47 46 45 46 48 48 51 45 45 45 45 45 46 46 45 45 45 48 47 47 47 47 48 50 48 48 48 48 48 49 50 51 52 52 52 51 50 48 47 49 48 48 48 48 50 50 47 44 41 44 48 49 49 48 48 49 49 49 49 48 49 49 49 51 52 54
48 48 49 49 49 49 50 50 50 49 48 50 50 49 52 48 47 46 45 48 49 48 48 47 47 47 44 45 45 44 44 44 45 45 45 45 48 48 47 46 47 48 50 48 48 48 47 48 48 50 51 52 53 53 52 51 49 48 48 47 47 47 48 48 47 47 46 42 42 44 45 48 47 48 48 47 48 49 48 48 48 48 51 50 51
50 52 49 49 49 49 51 50 50 50 49 48 48 48 48 49 47 47 46 45 46 46 45 45 45 45 43 43 44 44 44 44 44 44 44 45 46 48 46 46 47 48 49 47 48 47 47 47 48 50 51 52 52 53 53 52 50 50 49 48 47 47 47 48 48 46 44 44 43 43 45 44 43 46 47 47 46 48 49 48 46 47 49 50 50
47 47 48 48 48 48 49 49 49 49 49 48 48 48 48 48 47 47 47 46 46 46 45 44 44 44 44 43 44 44 44 44 44 44 44 45 47 47 46 46 47 49 47 47 48 47 47 47 49 50 50 51 51 52 52 52 52 50 50 49 48 48 48 47 46 47 45 44 44 44 44 45 44 44 46 47 46 45 47 48 47 47 48 49 50